Tacoma Narrows, WA
on Sunday, January 6, 2013

Sunday
Previous Day Next Day
Daily Summary
 ActualAverageRecord
Temperature
Mean Temperature °F °F  
Max Temperature 45°F 43°F 55°F (2002)
Min Temperature 39°F 36°F 24°F (2004)
Degree Days
Heating Degree Days 23    
Moisture
Dew Point 37°F   
Average Humidity 84    
Maximum Humidity 89    
Minimum Humidity 74    
Precipitation
Precipitation 0.13 in in in ()
Wind
Wind Speed 7 mph   
Max Wind Speed 13 mph   
Max Gust Speed 20 mph   
Visibility 10 miles   
Events Rain   
Averages and records for this station are not official NWS values.
Key: T is trace of precipitation, MM is missing value
Source: NWS Daily Summary
Seasonal Weather Averages
Time(PST)TemperatureDew PointHumidity Pressure Visibility Wind DirectionWind SpeedGust SpeedPrecipitationEvents Conditions
12:00 AM 39.2°F 35.6°F 87% 30.16 in 10.0 miles South 9.2 mph - N/A   Mostly Cloudy
12:10 AM 39.2°F 35.6°F 87% 30.15 in 10.0 miles South 6.9 mph - N/A   Scattered Clouds
12:53 AM 39.9°F 36.0°F 86% 30.16 in 10.0 miles South 10.4 mph - N/A   Clear
1:53 AM 39.0°F 36.0°F 89% 30.18 in 10.0 miles South 6.9 mph - N/A   Clear
2:53 AM 39.9°F 36.0°F 86% 30.18 in 10.0 miles SSE 8.1 mph - N/A   Overcast
3:53 AM 41.0°F 35.6°F 81% 30.15 in 10.0 miles South 8.1 mph - N/A   Overcast
4:05 AM 41.0°F 37.4°F 87% 30.15 in 10.0 miles SSW 5.8 mph - N/A   Overcast
4:53 AM 39.9°F 36.0°F 86% 30.16 in 10.0 miles Calm Calm - N/A   Overcast
5:53 AM 39.9°F 36.0°F 86% 30.17 in 10.0 miles South 3.5 mph - N/A   Overcast
6:13 AM 39.2°F 35.6°F 87% 30.16 in 10.0 miles SSW 5.8 mph - N/A   Overcast
6:35 AM 39.2°F 35.6°F 87% 30.16 in 9.0 miles SSW 4.6 mph - 0.00 in Rain Light Rain
6:53 AM 39.9°F 35.1°F 83% 30.17 in 10.0 miles South 8.1 mph - 0.01 in Rain Light Rain
7:38 AM 39.2°F 35.6°F 87% 30.16 in 10.0 miles South 5.8 mph - 0.01 in   Overcast
7:48 AM 39.2°F 35.6°F 87% 30.17 in 10.0 miles SSW 5.8 mph - N/A   Overcast
7:53 AM 39.9°F 36.0°F 86% 30.18 in 10.0 miles WSW 3.5 mph - 0.02 in   Overcast
8:53 AM 41.0°F 37.0°F 86% 30.19 in 10.0 miles SSW 5.8 mph - 0.00 in   Mostly Cloudy
9:53 AM 42.1°F 39.0°F 89% 30.20 in 10.0 miles South 3.5 mph - N/A   Mostly Cloudy
10:53 AM 43.0°F 39.0°F 86% 30.19 in 10.0 miles South 5.8 mph - 0.01 in   Mostly Cloudy
11:53 AM 43.0°F 39.0°F 86% 30.17 in 10.0 miles SSW 5.8 mph - 0.00 in Rain Light Rain
12:53 PM 43.0°F 39.0°F 86% 30.15 in 10.0 miles SSW 5.8 mph - 0.00 in   Overcast
1:53 PM 44.1°F 37.9°F 79% 30.13 in 10.0 miles South 11.5 mph - N/A   Overcast
2:53 PM 45.0°F 37.0°F 74% 30.13 in 10.0 miles South 12.7 mph 19.6 mph N/A   Overcast
3:53 PM 45.0°F 37.0°F 74% 30.11 in 10.0 miles South 10.4 mph - N/A   Overcast
4:53 PM 44.1°F 37.0°F 76% 30.10 in 10.0 miles SSW 6.9 mph - N/A   Overcast
5:53 PM 44.1°F 37.0°F 76% 30.09 in 10.0 miles SSW 8.1 mph - 0.00 in Rain Light Rain
6:53 PM 44.1°F 37.0°F 76% 30.08 in 10.0 miles South 10.4 mph - 0.01 in Rain Light Rain
7:53 PM 43.0°F 36.0°F 76% 30.07 in 10.0 miles South 6.9 mph - 0.01 in Rain Light Rain
8:53 PM 43.0°F 37.9°F 82% 30.06 in 10.0 miles Calm Calm - 0.01 in Rain Light Rain
9:02 PM 42.8°F 37.4°F 81% 30.04 in 10.0 miles Calm Calm - 0.01 in Rain Light Rain
9:53 PM 42.1°F 39.0°F 89% 30.03 in 10.0 miles Calm Calm - 0.04 in Rain Light Rain
10:06 PM 42.8°F 39.2°F 87% 30.01 in 10.0 miles SE 4.6 mph - 0.01 in Rain Light Rain
10:53 PM 42.1°F 37.9°F 85% 30.01 in 10.0 miles South 4.6 mph - 0.01 in Rain Light Rain
11:53 PM 42.1°F 37.9°F 85% 29.99 in 10.0 miles South 3.5 mph - 0.01 in Rain Light Rain
Moon Phase
Jan. 06 Jan. 11 Jan. 18 Jan. 26 Feb. 03
Sunrise:07:56 AM (PST) Moon Rise:02:08 AM (PST)1/6
Sunset:04:36 PM (PST) Moon Set:12:14 PM (PST)1/6

Copyright © 2014 The Weather Underground, Inc.